DELTA 1 DEB, 10829

Orbit data source: Space-Track

DELTA 1 DEB, 10829 is space debris in SSO originally from a launch on Thu, 29 Jul 1976 UTC launched from the Air Force Western Test Range (AFWTR). Debris objects in space refer to the collection of defunct objects orbiting the Earth. Examples of debris include non-operational satellites, rocket bodies, and fragments generated from explosions, collisions, or faulty payload assembly.

Loading next visibility...
Identifier
10829, 1976-077BZ
Orbit
SSO
Country
Flag of USUS
Related business
Manufacturer
Unknown
Mission
Spacecraft
Bus & Motor
Unknown
Mass
Unknown
Launch date (UTC)
1976-07-29 (50 years ago)
Launch vehicle
Unknown
Launch site
Air Force Western Test Range (AFWTR)
Object type
Payload
Rocket body
Debris
Shape & HBR
Unknown shape, 0.1 m
Radar Cross Section
Small (<0.1 m²)

Expand to show TLE details & history
Last TLE update: 17 hours ago

TLE from 17 hours ago
0 DELTA 1 DEB
1 10829U 76077BZ  26033.47371675 -.00000079  00000-0 -28111-3 0  9995
2 10829 101.7620 356.3976 0041237   1.9257 122.3284 12.36704653232487
Epoch: 2026-02-02T11:22Z
TLE epoch observation values (Epoch: 2026-02-02T11:22:09.127Z)
Latitude
53.73729°
Longitude
-110.40171°
Altitude
1,546.72 km
Speed
7.09 km/s
True Right ascension
12h 51m 13s
True Declination
53° 35' 22"
Sunlit
Object was in daylight at epoch
Visualization orbit readout
Latitude
Unknown
Longitude
Unknown
Altitude
Unknown
Speed
Unknown
Apparent Right ascension
Unknown
Apparent Declination
Unknown
Sunlit
N/A
Visualization observer readout
Local Sidereal Time
05:47:31
Azimuth
Unknown
Elevation
Unknown
Doppler factor
Unknown
Orbital elements
Apogee altitude
1,550.73 km
Perigee altitude
1,485.606 km
Semi-major axis
7,896.305 km
Eccentricity
0.00412
Inclination
101.762°
RAAN
356.3976°
Arg. of periapsis
1.9257°
True anomaly
122.72659°
Mean anomaly
122.3284°
Eccentric anomaly
122.52761°
Mean motion
3.09319 °/min
Orbital period
116.38 mins
BSTAR
-0.00028111
Loading maneuver chart data...
Computing Atmospheric mass density...
Loading historical data...
Loading historical data...
Loading historical data...
Loading historical data...
Loading historical data...
Loading historical data...
Loading historical data...

Documentation

Showing up to 5 results
|